Terug naar catalogus

COSMOS 1261 DEB

ActiefHEO
NORAD 12894·DEBRIS·🇷🇺 Russia

Gelanceerd Mar 31, 1981 vanaf Plesetsk Cosmodrome

Loading…

Volgende Passages (komende 24 uur)

TLE

VersSource: Space-Track

Epoch: Sep 8, 2026, 14:24 UTC

1 12894U 81031G   26251.60067885  .00000337  00000-0  00000-0 0  9996
2 12894  69.8461  89.3144 5601632 347.0386 217.0350  2.00491147303432

Volg COSMOS 1261 DEB in realtime met AllMySat

Download on the App Store